Location: Newark
(52.2712°N, 35.2148°E)
Time: 14:28:45
(UTC+00:00)

ISS - Visible Passes

Search period start: 23 September 2020 00:00
Search period end: 03 October 2020 00:00
Orbit: 419 x 420 km, 51.6° (Epoch: 23 September)

Date Brightness Start Highest point End Pass type
(mag) Time Alt. Az. Time Alt. Az. Time Alt. Az.
23 Sep -3.8 17:23:30 10° WSW 17:26:52 75° S 17:27:27 56° ESE visible
23 Sep -0.5 19:00:17 10° W 19:00:25 11° W 19:00:25 11° W visible
24 Sep -3.7 16:36:09 10° WSW 16:39:30 65° SSE 16:41:52 18° E visible
24 Sep -2.1 18:12:53 10° W 18:14:50 32° W 18:14:50 32° W visible
25 Sep -3.9 17:25:28 10° W 17:28:51 82° S 17:29:12 69° ESE visible
26 Sep -3.8 16:38:03 10° W 16:41:26 81° S 16:43:32 21° E visible
26 Sep -1.7 18:14:51 10° W 18:16:30 26° W 18:16:30 26° W visible
27 Sep -3.8 17:27:25 10° W 17:30:47 70° SSW 17:30:49 70° S visible
28 Sep -3.8 16:39:58 10° W 16:43:21 79° S 16:45:08 26° ESE visible
28 Sep -1.3 18:16:50 10° W 18:18:06 19° W 18:18:06 19° W visible
29 Sep -3.7 15:52:31 10° W 15:55:55 82° S 15:59:18 10° E visible
29 Sep -3.1 17:29:20 10° W 17:32:25 46° SSW 17:32:25 46° SSW visible
30 Sep -3.5 16:41:52 10° W 16:45:12 59° SSW 16:46:46 28° SE visible
30 Sep -0.8 18:19:03 10° W 18:19:43 13° WSW 18:19:43 13° WSW visible
01 Oct -3.6 15:54:23 10° W 15:57:46 70° S 16:01:07 10° ESE visible
01 Oct -2.1 17:31:22 10° W 17:34:05 26° SW 17:34:05 26° SW visible
02 Oct -2.6 16:43:46 10° W 16:46:53 35° SSW 16:48:30 22° SSE visible
